sat.trackr.live / text

‹ back to catalog

SXM-9

NORAD 62259 · 2024-234A

PAYLOAD ACTIVE UNKNOWN

§ Identity

Operator
Country
US
Launch date
2024-12-05
Launch site
AFETR
Launch vehicle
Mass (kg)
RCS (m²)

Purposes: comms

External: N2YO · Heavens-Above · Gunter

§ Orbital elements

Epoch: 2026-05-24T23:38:38.700096Z

Period
1,436.08 min
Inclination
0.0132°
Eccentricity
0.0004935
Mean motion
1.00272768 rev/d
Perigee alt
35,765.5 km
Apogee alt
35,807.1 km
Semi-major
42,164.5 km
B*
0.0000e+0
RAAN
328.8981°
Arg perigee
345.1048°
Mean anomaly
198.0809°
Rev number
534

§ Raw data

SXM-91 62259U 24234A   26144.98517014 -.00000208  00000+0  00000+0 0  99902 62259   0.0132 328.8981 0004935 345.1048 198.0809  1.00272768  5347

JSON: /api/v1/satellites/62259 · /tle

For live sub-satellite position, see the globe view (requires WebGL).

§ Visibility from observer

Set your observer location to see the next 7 days of passes ≥ 10°. The values pass through the URL so the page stays shareable.

No JS? Fill the form by hand. The geolocation button needs JavaScript.